Retour au catalogue

STARLINK-5955

ActifCommunicationsSSO
NORAD 56342·PAYLOAD·🇺🇸 United States

Lancé Apr 27, 2023 depuis Vandenberg Space Force Base

Loading…

Prochains Passages (prochaines 24 heures)

TLE

FraisSource: CelesTrak SupGP

Époque: Sep 15, 2026, 01:31 UTC

1 56342C 23058AB  26258.06368056 -.00048410  00000+0 -15023-2 0  2584
2 56342  97.2845 254.9197 0001494  98.6573 255.6509 15.33472394    14

Suivez STARLINK-5955 en temps réel avec AllMySat

Download on the App Store